sat.trackr.live / text

‹ back to catalog

STARLINK-6172

NORAD 57130 · 2023-090AF

PAYLOAD ACTIVE UNKNOWN

§ Identity

Operator
Country
US
Launch date
2023-06-23
Launch site
AFETR
Launch vehicle
Mass (kg)
RCS (m²)

Purposes: comms

External: N2YO · Heavens-Above · Gunter

§ Orbital elements

Epoch: 2026-05-25T04:12:50.537088Z

Period
94.32 min
Inclination
43.0036°
Eccentricity
0.0001680
Mean motion
15.26741561 rev/d
Perigee alt
484.4 km
Apogee alt
486.7 km
Semi-major
6,863.7 km
B*
3.1528e-5
RAAN
209.2815°
Arg perigee
265.8410°
Mean anomaly
94.2249°
Rev number
16,184

§ Raw data

STARLINK-61721 57130U 23090AF  26145.17558492  .00000586  00000+0  31528-4 0  99902 57130  43.0036 209.2815 0001680 265.8410  94.2249 15.26741561161840

JSON: /api/v1/satellites/57130 · /tle

For live sub-satellite position, see the globe view (requires WebGL).

§ Visibility from observer

Set your observer location to see the next 7 days of passes ≥ 10°. The values pass through the URL so the page stays shareable.

No JS? Fill the form by hand. The geolocation button needs JavaScript.